This demonstration page uses our WeatherBlox Daily Observations layout. Learn more.

Left ArrowRight Arrow

38.89511, -77.03637

Hourly Observations for January 15, 2021

Temp ( °F °C ) Dew Point ( °F °C ) Humidity (%) Winds ( mph kmh ) Pressure ( in mb ) Visibility ( mi km ) Precip ( " mm )
12:52 am 00:52 Mostly Cloudy 38 3.3 32 0 79 79 NE 3 6 29.88 1012 10 16 0.00 0.00
1:52 am 01:52 Cloudy 38 3.3 32 0 79 79 ENE 7 11 29.89 1012 10 16 0.00 0.00
2:52 am 02:52 Cloudy 37 2.8 31 -0.6 79 79 NE 7 11 29.90 1012 10 16 0.00 0.00
3:52 am 03:52 Cloudy 37 2.8 31 -0.6 79 79 ENE 5 7 29.89 1012 10 16 0.00 0.00
4:52 am 04:52 Cloudy 35 1.7 31 -0.6 85 85 NE 7 11 29.86 1011 9 14 0.00 0.00
5:52 am 05:52 Cloudy 35 1.7 31 -0.6 85 85 NNE 7 11 29.88 1012 8 13 0.00 0.00
6:52 am 06:52 Cloudy 35 1.7 32 0 89 89 NE 10 17 29.87 1011 8 13 0.00 0.00
7:52 am 07:52 Cloudy 36 2.2 32 0 86 86 NNE 5 7 29.88 1012 7 11 0.00 0.00
8:52 am 08:52 Cloudy 39 3.9 33 0.6 79 79 N 3 6 29.90 1013 7 11 0.00 0.00
9:52 am 09:52 Cloudy 43 6.1 34 1.1 71 71 Calm 29.90 1012 7 11 0.00 0.00
10:52 am 10:52 Cloudy 47 8.3 35 1.7 63 63 SE 13 20 29.85 1011 10 16 0.00 0.00
11:52 am 11:52 Cloudy 50 10 38 3.3 63 63 SSE 10 17 29.80 1009 10 16 0.00 0.00
12:52 pm 12:52 Mostly Cloudy 52 11.1 39 3.9 61 61 SSE 15 24 29.79 1009 10 16 0.00 0.00
1:52 pm 13:52 Cloudy 51 10.6 39 3.9 64 64 ESE 10 17 29.75 1008 10 16 0.00 0.00
2:52 pm 14:52 Cloudy 51 10.6 37 2.8 59 59 S 12 19 29.76 1008 10 16 0.00 0.00
3:52 pm 15:52 Cloudy 50 10 39 3.9 66 66 ESE 13 20 29.75 1007 10 16 0.00 0.00
4:52 pm 16:52 Cloudy 49 9.4 40 4.4 71 71 ESE 13 20 29.72 1006 10 16 0.00 0.00
5:52 pm 17:52 Cloudy 49 9.4 41 5 74 74 SE 8 13 29.74 1007 10 16 0.00 0.00
6:52 pm 18:52 Cloudy with Light Rain 47 8.3 43 6.1 86 86 ESE 5 7 29.75 1008 7 11 0.04 1.02
7:52 pm 19:52 Cloudy with Light Rain 47 8.3 43 6.1 86 86 E 6 9 29.72 1007 7 11 0.04 1.02
8:52 pm 20:52 Cloudy with Light Rain 47 8.3 44 6.7 90 90 Calm 29.70 1006 6 10 0.07 1.78
9:00 pm 21:00 Cloudy with Light Rain 46 7.8 44 6.7 93 93 Calm 29.70 1006 6 10 0.00 0.00
9:52 pm 21:52 Cloudy 46 7.8 43 6.1 89 89 Calm 29.69 1005 10 16 0.02 0.51
10:52 pm 22:52 Cloudy 46 7.8 43 6.1 89 89 S 7 11 29.67 1005 10 16 0.00 0.00
11:52 pm 23:52 Cloudy 46 7.8 44 6.7 93 93 SW 3 6 29.66 1004 9 14 0.00 0.00

Powered by AerisWeather